Flag for Japan Weather past 2 weeks in Nagoya, Japan

Now
46 °F

Passing clouds.


Feels Like: 36 °F
Forecast: 34 / 50 °F
Wind: 35 mph from Northwest

Location: Nagoya Airport

Current Time: Mar 5, 2015 at 5:06:16 PM

Latest Report: Mar 5, 2015 at 4:30 PM


Visibility: N/A

Pressure: 30.09 "Hg

Humidity: 50%

Dew point: 28 °F

Location of NagoyaLocation

Historic Weather in Nagoya — Graph

°F

Nagoya temperature yesterday

Maximum temperature yesterday: 55 °F (at 3:30 PM)
Minimum temperature yesterday: 45 °F (at 2:00 AM)
Average temperature yesterday: 49 °F

Past Weeks' High & Low Weather Summary

 TemperatureHumidityPressure
High57 °F (Feb 22, 12:00 PM)100% (Feb 22, 9:00 PM)30.33 "Hg (Feb 22, 9:00 PM)
Low34 °F (Mar 3, 5:30 AM)28% (Feb 28, 1:30 PM)29.56 "Hg (Mar 4, 3:00 AM)
Average47 °F70%30.01 "Hg
* Reported Feb 18 3:00 PM — Mar 5 3:30 PM, Nagoya, Weather by CustomWeather, © 2015

Note: Actual official high and low records may vary slightly from our data, if they occured in-between our weather recording intervals... More about our weather records

Advertising

Nagoya weather history for previous 24 hours

 ConditionsComfort  
Time TempWeatherWind HumidityBarometerVisibility
3:30 PM
Thu, Mar 5
46 °FPassing clouds.30 mph50%30.09 "HgN/A
3:00 PM46 °FPassing clouds.28 mph53%30.09 "HgN/A
2:30 PM48 °FPartly sunny.25 mph46%30.07 "HgN/A
2:00 PM46 °FBroken clouds.28 mph50%30.07 "HgN/A
1:30 PM48 °FPartly sunny.25 mph54%30.07 "HgN/A
12:30 PM48 °FBroken clouds.25 mph54%30.07 "HgN/A
12:00 PM48 °FSprinkles. Broken clouds.25 mph54%30.09 "HgN/A
11:00 AM46 °FPassing clouds.26 mph53%30.09 "HgN/A
10:30 AM45 °FPassing clouds.30 mph61%30.09 "HgN/A
10:00 AM45 °FPassing clouds.30 mph57%30.09 "HgN/A
9:30 AM46 °FScattered showers. Passing clouds.26 mph53%30.09 "HgN/A
9:00 AM45 °FPassing clouds.30 mph53%30.09 "HgN/A
8:30 AM45 °FPassing clouds.37 mph57%30.07 "HgN/A
8:00 AM45 °FScattered clouds.37 mph61%30.07 "HgN/A
7:30 AM43 °FPassing clouds.36 mph61%30.04 "HgN/A
6:00 AM45 °FPassing clouds.35 mph61%30.04 "HgN/A
5:30 AM43 °FPartly cloudy.35 mph61%30.01 "HgN/A
5:00 AM43 °FPassing clouds.30 mph61%30.01 "HgN/A
4:30 AM43 °FPassing clouds.30 mph61%30.01 "HgN/A
4:00 AM43 °FPassing clouds.32 mph61%30.01 "HgN/A
3:30 AM43 °FPassing clouds.33 mph61%30.01 "HgN/A
3:00 AM43 °FPassing clouds.33 mph61%30.01 "HgN/A
2:30 AM43 °FPartly cloudy.35 mph61%30.01 "HgN/A
2:00 AM43 °FPassing clouds.28 mph66%30.01 "HgN/A
1:30 AM43 °FPassing clouds.30 mph66%30.01 "HgN/A
1:00 AM45 °FPassing clouds.29 mph57%30.01 "HgN/A
12:30 AM45 °FPassing clouds.31 mph57%30.01 "HgN/A
12:00 AM45 °FPartly cloudy.29 mph57%30.01 "HgN/A
11:30 PM
Wed, Mar 4
45 °FPassing clouds.28 mph57%30.01 "HgN/A
11:00 PM45 °FPassing clouds.29 mph61%30.01 "HgN/A
10:30 PM45 °FPassing clouds.29 mph57%29.98 "HgN/A
10:00 PM45 °FPassing clouds.30 mph61%29.98 "HgN/A
9:30 PM45 °FPassing clouds.31 mph66%29.98 "HgN/A
9:00 PM46 °FPassing clouds.30 mph66%29.95 "HgN/A
8:30 PM46 °FPassing clouds.30 mph66%29.95 "HgN/A
8:00 PM46 °FPassing clouds.31 mph71%29.95 "HgN/A
7:30 PM46 °FPassing clouds.29 mph71%29.92 "HgN/A
7:00 PM46 °FPassing clouds.29 mph76%29.89 "HgN/A
6:30 PM48 °FPassing clouds.28 mph71%29.89 "HgN/A
6:00 PM48 °FPartly cloudy.24 mph76%29.86 "HgN/A
5:30 PM50 °FPartly sunny.20 mph71%29.83 "HgN/A
5:00 PM52 °FPartly sunny.20 mph72%29.80 "HgN/A
Weather by CustomWeather, © 2015

See weather overviewHow to use our weather pages